Wilmington, OH

8:00 AM EDT on May 27, 2015 (GMT -0400)
Dayton-Wright Brothers | | Change Station
CLOSE
Current Station
Airport
Location: Dayton Wright,
Elevation: 961 ft
Nearby Weather Stations

Elev 961 ft 39.59 °N, 84.22 °W | Updated 7 minutes ago

Mostly Cloudy
Mostly Cloudy
67 °F
Feels Like 67 °F
N
8
Wind Variable Wind from SW

Today
High -- | Low -- °F
--% Chance of Precip.
Yesterday
High -- | Low -- °F
Precip. -- in
6:12 AM 8:52 PM
Waxing Gibbous, 66% visible
Pressure 30.09 in
Visibility 8.0 miles
Clouds Overcast 1400 ft
Dew Point 64 °F
Humidity 90%
Rainfall 0.00 in
Snow Depth Not available.
UV 0 out of 12
Pollen 8.00 out of 12
Air Quality Not available.
Flu Activity Local Activity
METAR KMGY 271153Z AUTO 22007KT 8SM OVC014 19/18 A3010 RMK AO2 SLP189 70027 T01940178 10194 20189 51019

More Conditions Fewer Conditions

Pressure 30.09 in
Visibility 8.0 miles
Clouds Overcast 1400 ft
Dew Point 64 °F
Humidity 90%
Rainfall 0.00 in
Snow Depth Not available.
UV 0 out of 12
Pollen 8.00 out of 12
Air Quality Not available.
Flu Activity Local Activity
METAR KMGY 271153Z AUTO 22007KT 8SM OVC014 19/18 A3010 RMK AO2 SLP189 70027 T01940178 10194 20189 51019

More Conditions Fewer Conditions

10-Day Weather Forecast

Almanac

Astronomy

May. 27, 2015 Rise Set
Actual Time
Civil Twilight
Nautical Twilight
Astronomical Twilight
Moon
Length of Visible Light
Length of Day
Tomorrow will be .
, % of the Moon is Illuminated

Today's Extremes

State Highs State Lows

Community

WunderPhotos

Upload Photos

1,824,642 photos uploaded!

WunderBlogs® & News

Nearby

Air Quality

  Air Quality AQ Index Pollutant
Not available.

Snow Depth

Station Depth Elevation

Earthquake Activity

City Distance Mag. Time & Date
Minimum magnitude displayed is 2.5.

Coastal Water Temperatures

Place Temperature

Stations

Nearby Weather Stations

Station Location Temp. Windchill Dew Point Humidity Wind Precip. Elev Updated Type